[[{"header":{"parameterUnit":"m.s-1","parameterCategory":1,"la1":30.2991,"la2":30.254,"lo1":-89.0895,"lo2":-89.0444,"dy":0.0017,"dx":0.0017,"nx":28,"ny":28,"refTime":"2024-02-19T09:00:00:Z","depth":0,"parameterNumber":2,"parameterNumberName":"U-component_of_WINDS"},"data":[0,0,0,0,0,0,0,0,0,0,0,0,0,0,0,0,0,0,0,0,0,0,0,0,0,0,0,0,0,0,0,0,0,0,0,0,0,0,0,0,0,0,0,0,0,0,0,0,0,0,0,0,0,0,0,0,0,0,1.2731,1.273,0,1.2711,1.271,1.271,1.2677,1.2676,1.2676,1.2675,1.2657,1.2657,1.2657,0,0,0,0,0,0,0,0,0,0,0,0,0,1.2743,1.2743,1.2731,1.273,1.273,1.2711,1.271,1.271,1.2677,1.2676,1.2676,1.2675,1.2657,1.2657,1.2657,0,0,0,0,0,0,0,0,0,0,0,0,0,1.2732,1.2743,1.2731,1.2711,1.2709,1.2711,1.271,1.271,1.2677,1.2676,1.2675,1.2675,1.2657,1.2657,1.2657,1.2676,0,0,1.2657,1.2657,0,0,0,0,0,0,0,0,1.2732,1.2731,1.2714,1.2713,1.271,1.2695,1.2708,1.2699,1.2678,1.269,1.2675,1.2674,1.267,1.2669,1.2668,1.2675,1.2675,1.2657,1.2657,1.2657,1.2657,0,0,0,0,0,0,0,1.2733,1.2732,1.2723,1.2714,1.2712,1.2704,1.2702,1.2706,1.2686,1.2688,1.2686,1.2684,1.2669,1.2668,1.2667,1.2674,1.2657,1.2657,1.2657,1.2658,1.2699,1.2699,0,0,0,0,0,0,1.2736,1.2733,1.2723,1.2722,1.2719,1.2705,1.2702,1.2701,1.2685,1.2682,1.2685,1.2682,1.2668,1.2667,1.2666,1.2689,1.2657,1.2658,1.2658,1.2698,1.2699,1.27,0,0,0,0,0,0,1.2737,1.2736,1.2724,1.2727,1.2725,1.2706,1.2705,1.2701,1.27,1.2683,1.2679,1.2687,1.2667,1.2666,1.2674,1.2688,1.2658,1.2658,1.2696,1.2698,1.2699,1.2734,0,0,0,0,0,0,1.2737,1.2736,1.2743,1.2727,1.2725,1.2732,1.2706,1.2702,1.27,1.2697,1.2684,1.2681,1.2666,1.2674,1.2674,1.2688,1.2658,1.2695,1.2697,1.2699,1.2732,1.2737,1.2741,0,0,0,0,0,1.2738,1.2753,1.2743,1.2742,1.2732,1.2733,1.2731,1.2714,1.2701,1.2708,1.2697,1.2681,1.2686,1.2675,1.2675,1.2689,1.2694,1.2696,1.2699,1.273,1.2736,1.2741,0,0,0,0,0,0,1.2772,1.2751,1.2739,1.275,1.2743,1.2727,1.2735,1.2721,1.2718,1.2715,1.2695,1.2692,1.2703,1.2697,1.2685,1.2707,1.2688,1.269,1.2711,1.2717,1.2721,1.2723,1.2658,0,0,0,0,0,1.278,1.2781,1.2764,1.2775,1.2772,1.2754,1.2754,1.2741,1.2734,1.2731,1.272,1.2714,1.2715,1.2715,1.2714,1.273,1.2728,1.274,1.2744,1.2748,1.2751,1.276,1.2765,1.2707,1.2707,1.2707,0,0,1.2798,1.2787,1.2789,1.2781,1.2775,1.2777,1.2752,1.2756,1.2758,1.2731,1.2739,1.2731,1.2723,1.2735,1.274,1.273,1.2766,1.2751,1.2754,1.2755,1.2763,1.2768,1.2773,1.2709,1.2709,1.2708,0,0,1.2832,1.2823,1.2833,1.2826,1.2816,1.2805,1.2807,1.2793,1.2787,1.2793,1.2774,1.2777,1.2777,1.2773,1.277,1.2804,1.279,1.2804,1.2829,1.2838,1.2843,1.2847,1.286,1.2865,1.2807,1.2807,1.2807,0,1.2856,1.2859,1.2839,1.2844,1.2842,1.2818,1.2828,1.2823,1.2813,1.2813,1.2801,1.2803,1.2795,1.2807,1.2815,1.2814,1.2817,1.2806,1.2843,1.2847,1.2851,1.2863,1.2868,1.2809,1.2809,1.2808,1.2808,0,1.2889,1.2891,1.29,1.2891,1.289,1.2898,1.288,1.2881,1.2869,1.2859,1.2867,1.2858,1.2855,1.2857,1.2845,1.2867,1.2861,1.2847,1.2827,1.2858,1.287,1.2874,1.2812,1.2811,1.281,1.281,0,0,1.2944,1.2925,1.2928,1.2925,1.2912,1.2914,1.2921,1.2918,1.292,1.2915,1.2921,1.2923,1.2909,1.2907,1.2894,1.2902,1.2931,1.2887,1.2887,1.2897,1.2957,1.2969,1.2975,1.2921,1.2922,1.2923,1.2958,0,1.2976,1.2987,1.297,1.2984,1.2987,1.2964,1.2971,1.2964,1.2955,1.2957,1.2947,1.2949,1.2931,1.2929,1.2936,1.2926,1.2943,1.2924,1.2928,1.2929,1.2932,1.298,1.2992,1.3026,1.2962,1.2963,1.2964,0,1.3016,1.3012,1.3027,1.3015,1.3015,1.3021,1.3018,1.3019,1.3012,1.3005,1.3003,1.2988,1.2995,1.2975,1.2985,1.2972,1.2973,1.2969,1.297,1.297,1.2949,1.2983,1.3036,1.3042,1.297,1.297,1.2969,0,1.3056,1.3055,1.3064,1.3061,1.3047,1.3052,1.3046,1.3038,1.3038,1.3035,1.3035,1.3033,1.3033,1.3032,1.3018,1.3004,1.303,1.3009,1.3026,1.3026,1.3033,1.3033,1.3088,1.3032,1.3032,1.3032,1.3031,0,1.3094,1.3105,1.3082,1.3087,1.3099,1.308,1.3092,1.3084,1.3077,1.3082,1.3062,1.3067,1.3047,1.305,1.3038,1.305,1.3049,1.3044,1.3042,1.3047,1.3048,1.3048,1.3045,1.3033,1.3033,1.3032,1.3032,0,1.3141,1.3126,1.3135,1.312,1.3117,1.3126,1.3115,1.312,1.311,1.3116,1.3116,1.31,1.3103,1.3088,1.3088,1.3081,1.3098,1.309,1.31,1.3098,1.3116,1.3115,1.3174,1.3182,1.312,1.3121,1.3121,0,1.3167,1.3175,1.3162,1.3163,1.3158,1.3161,1.3161,1.3143,1.3143,1.3136,1.3143,1.3144,1.3144,1.3149,1.3138,1.3139,1.3132,1.3152,1.3132,1.3137,1.3133,1.3134,1.3135,1.3157,1.3158,1.3158,1.3159,0,1.3216,1.3208,1.3208,1.3206,1.3206,1.3204,1.32,1.3203,1.3183,1.3185,1.3188,1.3188,1.3188,1.319,1.3188,1.3183,1.3168,1.3165,1.3169,1.3175,1.3181,1.318,1.3113,1.3164,1.3164,1.3163,1.3163,1.3163,1.3254,1.326,1.3252,1.3253,1.3248,1.3246,1.325,1.3241,1.3242,1.3241,1.323,1.3235,1.3228,1.3224,1.3221,1.3225,1.3215,1.3221,1.3223,1.3225,1.3228,1.318,1.3225,1.3224,1.3224,1.3224,1.3224,0,1.3302,1.3296,1.3297,1.3293,1.3294,1.328,1.3275,1.3277,1.3282,1.3277,1.3277,1.3281,1.3282,1.3272,1.3272,1.3278,1.3271,1.3279,1.3279,1.3278,1.3236,1.3233,1.3284,1.3284,1.3284,1.3284,1.3284,1.3284,1.3328,1.3338,1.3329,1.3337,1.3331,1.3335,1.3334,1.3332,1.3328,1.3333,1.3334,1.3327,1.332,1.332,1.3321,1.3318,1.332,1.333,1.3325,1.3286,1.3281,1.3275,1.3272,1.333,1.333,1.3366,1.3366,1.3367]},{"header":{"parameterUnit":"m.s-1","parameterCategory":1,"la1":30.2991,"la2":30.254,"lo1":-89.0895,"lo2":-89.0444,"dy":0.0017,"dx":0.0017,"nx":28,"ny":28,"refTime":"2024-02-19T09:00:00:Z","depth":0,"parameterNumber":3,"parameterNumberName":"V-component_of_WINDS"},"data":[0,0,0,0,0,0,0,0,0,0,0,0,0,0,0,0,0,0,0,0,0,0,0,0,0,0,0,0,0,0,0,0,0,0,0,0,0,0,0,0,0,0,0,0,0,0,0,0,0,0,0,0,0,0,0,0,0,0,1.4808,1.4809,0,1.487,1.4871,1.4871,1.4922,1.4922,1.4923,1.4923,1.4986,1.4988,1.4989,0,0,0,0,0,0,0,0,0,0,0,0,0,1.4732,1.4733,1.4808,1.4809,1.481,1.487,1.4871,1.4872,1.4921,1.4922,1.4923,1.4923,1.4986,1.4987,1.4989,0,0,0,0,0,0,0,0,0,0,0,0,0,1.4777,1.4734,1.4808,1.4842,1.4846,1.487,1.4871,1.4872,1.4921,1.4922,1.4923,1.4924,1.4985,1.4987,1.4989,1.4985,0,0,1.4995,1.4995,0,0,0,0,0,0,0,0,1.4774,1.4779,1.4836,1.484,1.4844,1.4889,1.4867,1.491,1.4921,1.4893,1.4923,1.4924,1.4953,1.4958,1.4968,1.4988,1.499,1.4995,1.4996,1.4997,1.4997,0,0,0,0,0,0,0,1.4771,1.4777,1.4833,1.4837,1.4842,1.4854,1.4861,1.4875,1.4918,1.4895,1.4899,1.4906,1.4956,1.4966,1.497,1.4991,1.4995,1.4996,1.4997,1.4998,1.5008,1.5007,0,0,0,0,0,0,1.4763,1.4774,1.4831,1.4835,1.481,1.4854,1.4862,1.4874,1.4918,1.4925,1.4905,1.4908,1.4962,1.4967,1.4972,1.4968,1.4997,1.4998,1.4999,1.5009,1.5008,1.5007,0,0,0,0,0,0,1.4761,1.4767,1.4828,1.4805,1.4814,1.4855,1.4867,1.4874,1.4885,1.4925,1.4933,1.4908,1.4963,1.4969,1.4981,1.4971,1.4999,1.5001,1.501,1.5009,1.5008,1.4961,0,0,0,0,0,0,1.4759,1.4766,1.4766,1.4805,1.4815,1.4836,1.4867,1.4875,1.4888,1.4892,1.493,1.4937,1.4964,1.4978,1.4982,1.4974,1.5002,1.5011,1.5009,1.5008,1.4964,1.4958,1.4954,0,0,0,0,0,1.4756,1.4751,1.4765,1.4772,1.4815,1.4835,1.4841,1.4873,1.4887,1.4886,1.4911,1.4936,1.4971,1.4978,1.4984,1.4976,1.5012,1.501,1.5008,1.4966,1.4959,1.4954,0,0,0,0,0,0,1.4709,1.4756,1.4773,1.4781,1.4804,1.4844,1.4844,1.4865,1.4885,1.4888,1.4927,1.4935,1.4941,1.496,1.4967,1.4973,1.4995,1.4994,1.496,1.4955,1.495,1.4945,1.5004,0,0,0,0,0,1.47,1.4713,1.4753,1.4756,1.4767,1.4803,1.4813,1.4835,1.4861,1.4871,1.4897,1.4921,1.4937,1.4947,1.4965,1.4967,1.4975,1.4964,1.4959,1.4955,1.4953,1.4954,1.4949,1.5001,1.5001,1.5001,0,0,1.4681,1.4708,1.4714,1.4747,1.4768,1.4779,1.4811,1.4823,1.4831,1.4873,1.4884,1.4904,1.4933,1.4939,1.4943,1.4955,1.4941,1.4952,1.4949,1.495,1.4951,1.4946,1.4942,1.5,1.5,1.5,0,0,1.4652,1.4674,1.4678,1.4697,1.4727,1.4751,1.4752,1.4789,1.4803,1.4816,1.4846,1.4857,1.4885,1.4903,1.4916,1.4892,1.4914,1.4897,1.4871,1.4871,1.4867,1.4863,1.4853,1.4849,1.4895,1.4895,1.4895,0,1.4624,1.4644,1.4677,1.4686,1.4699,1.4737,1.474,1.4757,1.4791,1.4799,1.4812,1.4846,1.4868,1.4878,1.4872,1.4882,1.4883,1.4892,1.4865,1.4862,1.4859,1.4849,1.4845,1.4893,1.4893,1.4893,1.4894,0,1.4607,1.462,1.4619,1.465,1.4663,1.467,1.4703,1.4712,1.4733,1.4755,1.4766,1.4794,1.4816,1.482,1.4841,1.4833,1.4839,1.4858,1.488,1.4851,1.4842,1.4839,1.4889,1.489,1.4891,1.4891,0,0,1.4551,1.46,1.4599,1.4612,1.4647,1.4658,1.4665,1.4687,1.4693,1.4715,1.4721,1.4742,1.4759,1.4774,1.4797,1.4797,1.4774,1.4816,1.4817,1.4806,1.4764,1.4748,1.4744,1.4789,1.4789,1.4788,1.4761,0,1.4527,1.4542,1.4571,1.4577,1.4588,1.4622,1.4628,1.465,1.467,1.4682,1.4705,1.4719,1.4742,1.475,1.4752,1.4776,1.4766,1.4779,1.4794,1.4794,1.4784,1.474,1.4724,1.4697,1.4758,1.4757,1.4757,0,1.45,1.4519,1.4525,1.4557,1.4563,1.4568,1.4589,1.46,1.4625,1.464,1.4655,1.468,1.4688,1.4709,1.472,1.4729,1.4737,1.4749,1.4749,1.4751,1.4773,1.4739,1.4689,1.4684,1.4753,1.4753,1.4753,0,1.4457,1.4484,1.449,1.4501,1.4539,1.4541,1.4557,1.4583,1.4593,1.4612,1.4619,1.4638,1.4648,1.4662,1.4691,1.4704,1.4699,1.4722,1.471,1.4709,1.4707,1.4706,1.4656,1.4714,1.4714,1.4714,1.4714,0,1.4425,1.4427,1.4471,1.4474,1.4477,1.4511,1.4512,1.4532,1.4553,1.4561,1.4592,1.4599,1.4637,1.4648,1.4671,1.4675,1.468,1.4692,1.4697,1.4688,1.4686,1.4693,1.4695,1.4713,1.4713,1.4714,1.4714,0,1.4377,1.4407,1.4415,1.445,1.4459,1.4459,1.4489,1.4493,1.4515,1.4524,1.4528,1.4563,1.4576,1.4607,1.4629,1.4645,1.4643,1.4655,1.4634,1.4638,1.4623,1.4623,1.4575,1.4569,1.4631,1.4631,1.463,0,1.4355,1.4357,1.4391,1.4398,1.4413,1.4424,1.4434,1.4467,1.4476,1.4503,1.4504,1.452,1.4535,1.4555,1.4582,1.4599,1.461,1.4592,1.4613,1.4602,1.4608,1.4606,1.4606,1.4586,1.4586,1.4585,1.4584,0,1.4311,1.4325,1.4339,1.4357,1.4368,1.4384,1.4401,1.4405,1.4442,1.4451,1.4465,1.4476,1.4498,1.4513,1.4533,1.455,1.4572,1.4578,1.4575,1.4565,1.4553,1.4557,1.462,1.4578,1.4579,1.4579,1.458,1.458,1.4274,1.4277,1.4301,1.4314,1.4331,1.4346,1.4351,1.4373,1.4385,1.4405,1.4424,1.4435,1.4458,1.4488,1.4502,1.4512,1.4523,1.4521,1.452,1.4518,1.4513,1.4552,1.4516,1.4516,1.4516,1.4516,1.4516,0,1.4231,1.4247,1.426,1.4282,1.4292,1.4313,1.4333,1.434,1.435,1.4369,1.4382,1.4397,1.4411,1.4439,1.4455,1.4457,1.4468,1.446,1.446,1.4463,1.4503,1.4502,1.4451,1.4451,1.4451,1.4451,1.4451,1.4451,1.4209,1.4214,1.423,1.4242,1.4259,1.4271,1.428,1.4294,1.4309,1.4324,1.4336,1.4353,1.4375,1.4393,1.4407,1.4414,1.4418,1.4407,1.4417,1.4454,1.446,1.4466,1.4466,1.4408,1.4408,1.4377,1.4376,1.4376]}]]